Flag for Australia Weather past 2 weeks in Darwin, Northern Territory, Australia

Now
73 °F

Passing clouds.


Feels Like: 70 °F
Forecast: 75 / 87 °F
Wind: 5 mph from Southwest

Location: Darwin Airport

Current Time: Sep 1, 2015 at 6:02:39 AM

Latest Report: Sep 1, 2015 at 5:30 AM


Visibility: N/A

Pressure: 29.92 "Hg

Humidity: 94%

Dew point: 72 °F

Location of DarwinLocation

Historic Weather in Darwin — Graph

°F

Darwin temperature yesterday

Maximum temperature yesterday: 88 °F (at 12:30 PM)
Minimum temperature yesterday: 73 °F (at 1:30 AM)
Average temperature yesterday: 81 °F

Past Weeks' High & Low Weather Summary

 TemperatureHumidityPressure
High91 °F (Aug 26, 1:30 PM)100% (Aug 22, 5:00 AM)30.07 "Hg (Aug 22, 5:00 AM)
Low61 °F (Aug 17, 4:30 AM)7% (Aug 17, 2:30 PM)29.86 "Hg (Aug 20, 4:00 PM)
Average78 °F68%29.96 "Hg
* Reported Aug 17 4:30 AM — Sep 1 4:30 AM, Darwin, Weather by CustomWeather, © 2015

Note: Actual official high and low records may vary slightly from our data, if they occured in-between our weather recording intervals... More about our weather records

Advertising

Darwin weather history for previous 24 hours

 ConditionsComfort  
Time TempWeatherWind HumidityBarometerVisibility
4:30 AM
Tue, Sep 1
73 °FPassing clouds.3 mph94%29.92 "HgN/A
4:00 AM73 °FPassing clouds.5 mph94%29.92 "HgN/A
3:30 AM75 °FPassing clouds.3 mph89%29.92 "HgN/A
3:00 AM75 °FPassing clouds.1 mph89%29.92 "HgN/A
2:30 AM75 °FPassing clouds.No wind94%29.92 "HgN/A
2:00 AM77 °FPassing clouds.5 mph89%29.92 "HgN/A
1:30 AM77 °FPassing clouds.5 mph89%29.95 "HgN/A
12:30 AM79 °FPassing clouds.5 mph84%29.95 "HgN/A
12:00 AM79 °FPassing clouds.6 mph84%29.95 "HgN/A
11:30 PM
Mon, Aug 31
79 °FPassing clouds.6 mph84%29.95 "HgN/A
10:30 PM79 °FPassing clouds.7 mph84%29.95 "HgN/A
10:00 PM79 °FPassing clouds.7 mph84%29.95 "HgN/A
9:30 PM79 °FPassing clouds.8 mph84%29.95 "HgN/A
8:30 PM79 °FWarm.9 mph79%29.92 "HgN/A
8:00 PM81 °FWarm.12 mph74%29.92 "HgN/A
7:30 PM81 °FWarm.10 mph74%29.92 "HgN/A
7:00 PM81 °FPassing clouds.12 mph70%29.89 "HgN/A
6:30 PM82 °FPassing clouds.13 mph66%29.89 "HgN/A
6:00 PM84 °FPassing clouds.10 mph55%29.89 "HgN/A
5:30 PM84 °FPassing clouds.14 mph55%29.89 "HgN/A
5:00 PM86 °FPassing clouds.15 mph52%29.89 "HgN/A
4:30 PM86 °FPassing clouds.15 mph59%29.89 "HgN/A
4:00 PM86 °FPassing clouds.15 mph59%29.89 "HgN/A
3:30 PM86 °FPassing clouds.14 mph55%29.89 "HgN/A
3:00 PM86 °FPassing clouds.15 mph59%29.92 "HgN/A
2:30 PM86 °FPassing clouds.15 mph59%29.92 "HgN/A
2:00 PM86 °FPassing clouds.15 mph55%29.92 "HgN/A
1:30 PM86 °FPassing clouds.14 mph55%29.95 "HgN/A
1:00 PM86 °FPassing clouds.13 mph52%29.95 "HgN/A
12:30 PM88 °FPassing clouds.10 mph49%29.95 "HgN/A
12:00 PM84 °FPassing clouds.12 mph55%29.98 "HgN/A
11:30 AM84 °FPassing clouds.10 mph58%29.98 "HgN/A
11:00 AM86 °FPassing clouds.9 mph59%29.98 "HgN/A
10:30 AM84 °FPassing clouds.8 mph62%30.01 "HgN/A
9:30 AM81 °FScattered clouds.10 mph74%30.01 "HgN/A
9:00 AM82 °FScattered clouds.12 mph70%29.98 "HgN/A
8:30 AM79 °FScattered clouds.5 mph84%30.01 "HgN/A
8:00 AM77 °FPassing clouds.6 mph89%29.98 "HgN/A
6:30 AM73 °FPassing clouds.6 mph94%29.95 "HgN/A
6:00 AM73 °FPassing clouds.10 mph94%29.95 "HgN/A
Weather by CustomWeather, © 2015

See weather overviewHow to use our weather pages